Temperature
15 15 15 15 15 15 15 16 16 16 16 16 16 16 16 16 16 16 16 15 15 15 15 15 15 15 15 15 15 15 15 14 14 14 14 14 14 14 14 14 14 14 14
16 15 15 15 15 15 15 15 16 16 16 15 15 15 15 15 15 15 15 15 15 15 15 15 15 15 15 15 15 15 14 14 14 14 14 14 14 14 14 14 14 14 14
16 15 15 15 15 15 15 15 15 16 15 15 15 15 15 15 15 15 15 15 15 15 15 15 15 15 15 15 15 14 14 14 14 14 14 14 14 14 14 14 14 13 13
15 15 15 15 15 15 15 15 15 15 15 15 15 15 15 15 15 15 15 15 15 15 15 15 15 15 14 14 14 14 14 14 14 14 14 14 13 13 13 13 13 13 13
15 15 15 14 15 15 15 15 15 15 15 15 15 15 15 15 15 15 15 15 15 15 15 14 14 14 14 14 14 14 14 14 14 14 14 13 13 13 13 13 13 13 13
15 14 14 14 14 15 15 15 15 15 15 15 15 15 15 15 15 15 15 14 14 14 14 14 14 14 14 14 14 14 14 14 14 14 13 13 13 13 13 13 13 13 12
14 14 14 14 14 14 15 15 15 15 15 15 15 15 15 15 15 15 14 14 14 14 14 14 14 14 14 14 14 14 13 13 13 13 13 13 13 12 12 12 12 12 12
14 14 14 14 14 14 14 14 14 14 14 14 14 15 15 14 14 14 14 14 14 14 14 14 14 14 14 13 13 13 13 13 13 13 13 13 12 12 12 12 12 12 12
13 13 13 14 14 14 14 14 14 14 14 14 14 14 14 14 14 14 14 14 14 14 13 13 13 13 13 13 13 13 13 13 13 13 12 12 12 12 12 12 12 11 11
13 13 13 13 13 13 13 14 14 14 14 14 14 14 14 14 14 14 13 13 13 13 13 13 13 13 13 13 13 13 12 12 12 12 12 12 12 12 11 11 11 11 11
12 12 13 13 13 13 13 13 13 13 13 13 13 14 14 13 13 13 13 13 13 13 13 13 13 13 13 12 12 12 12 12 12 12 12 12 12 11 11 11 11 11 11
12 12 12 12 12 12 13 13 13 13 13 13 13 13 13 13 13 13 13 13 13 13 13 12 12 12 12 12 12 12 12 12 12 12 11 11 11 11 11 11 11 11 11
11 11 12 12 12 12 12 12 13 13 13 12 13 13 13 13 13 13 12 12 12 12 12 12 12 12 12 12 12 12 12 12 11 11 11 11 11 11 11 11 11 10 10
10 11 11 11 12 12 12 12 12 12 12 12 12 12 12 12 12 12 12 12 12 12 12 12 12 12 11 11 11 11 11 11 11 11 11 11 11 11 11 10 10 10 10
10 10 10 11 11 11 11 11 11 12 12 12 12 12 12 12 12 12 12 12 12 11 11 11 11 11 11 11 11 11 11 11 11 11 11 11 11 11 10 10 10 10 10
9 10 10 10 10 10 11 11 11 11 11 11 11 11 12 12 11 11 11 11 11 11 11 11 11 11 11 11 11 11 10 10 10 10 10 10 10 10 10 10 10 10 10
8 9 9 10 10 10 10 10 10 11 11 11 11 11 11 11 11 11 11 11 11 11 11 11 11 11 10 10 10 10 10 10 10 10 10 10 10 10 10 10 10 10 10
8 8 9 9 9 10 10 10 10 10 10 10 11 11 11 11 11 11 10 10 10 10 10 10 10 10 10 10 10 10 10 10 10 10 10 10 10 10 10 10 9 9 9
7 8 8 8 9 9 9 9 9 10 10 10 10 10 10 10 10 10 10 10 10 10 10 10 10 10 10 10 10 9 9 9 9 9 9 9 9 9 9 9 9 9 9
6 7 8 8 8 8 9 9 9 9 9 9 9 9 10 10 10 9 9 9 9 9 9 9 9 9 9 9 9 9 9 9 9 9 9 9 9 9 9 9 9 9 9
6 7 7 7 8 8 8 8 8 9 9 9 9 9 9 9 9 9 9 9 9 9 9 9 9 9 8 8 8 8 8 8 8 8 8 9 9 9 9 9 9 9 9
5 6 6 7 7 7 8 8 8 8 8 8 8 8 8 8 9 9 9 9 9 8 8 8 8 8 8 8 8 8 8 8 8 8 8 8 8 8 8 8 8 8 8
5 5 5 6 6 7 7 7 7 7 7 7 8 8 8 8 8 8 8 8 8 8 8 8 8 8 8 8 7 8 7 7 7 8 8 8 8 8 8 8 8 8 8
4 4 5 5 6 6 6 6 7 7 7 7 7 7 7 7 7 8 8 8 8 8 8 8 7 7 7 7 7 7 7 8 7 7 7 8 8 8 8 8 8 8 8
3 4 4 5 5 5 5 6 6 6 6 6 6 6 7 7 7 7 7 7 7 7 7 7 7 7 7 7 7 7 7 7 7 7 7 7 7 8 7 7 7 7 7
3 3 4 4 4 4 5 5 5 5 5 6 6 6 6 6 6 6 6 6 6 7 7 7 7 7 6 6 7 7 7 7 7 7 7 7 7 7 7 7 7 7 7
Wind_Speed
3 5 10 12 13 14 14 14 15 15 16 17 17 17 16 16 16 15 15 15 15 16 17 17 18 18 19 19 20 20 20 20 20 20 20 20 20 20 20 19 18 18 20
4 8 11 12 14 14 14 14 15 15 16 16 16 16 16 16 15 15 15 15 15 16 16 17 17 18 19 19 19 19 19 19 19 19 19 18 19 19 19 19 18 17 19
6 9 11 12 14 14 14 14 15 15 15 15 15 15 15 15 15 15 15 15 15 15 16 16 17 17 18 18 19 19 19 19 19 18 17 16 17 19 19 18 18 18 19
6 8 10 12 13 14 14 14 15 15 15 15 15 15 15 15 14 14 14 14 15 15 15 16 17 17 17 18 18 18 18 18 17 16 14 14 15 18 18 18 18 18 18
6 6 9 11 13 13 14 14 15 15 15 14 14 14 14 14 13 13 14 14 14 15 15 16 16 16 17 17 17 17 17 17 16 15 14 14 14 17 17 17 17 18 17
5 6 8 11 12 13 13 13 14 14 14 14 14 14 13 13 13 13 13 14 14 15 15 15 16 16 17 17 17 16 16 16 15 14 13 13 13 16 16 16 17 17 17
5 6 8 10 11 12 12 13 13 14 14 14 14 13 13 13 13 13 14 14 14 14 15 15 15 16 16 16 16 16 15 15 14 13 12 12 13 15 15 15 16 16 16
5 5 7 9 9 10 11 12 13 13 13 13 13 13 13 13 13 13 13 13 13 14 14 14 15 15 15 15 15 15 14 13 12 11 10 11 12 13 14 14 15 15 16
5 5 6 7 8 9 10 11 12 13 13 13 13 13 13 13 13 13 13 13 13 13 13 14 14 15 15 14 14 14 13 13 12 10 9 9 12 13 13 14 14 15 15
5 5 5 6 7 7 8 10 10 11 12 12 12 12 13 13 12 13 12 12 12 12 13 13 14 14 14 14 14 14 13 12 11 10 8 9 11 12 12 13 13 14 14
5 5 5 5 6 6 7 8 9 10 11 11 11 12 12 11 11 11 11 12 12 12 12 13 14 14 13 13 13 13 12 11 10 9 8 9 10 11 11 12 12 13 13
3 3 4 5 5 5 5 6 7 8 9 9 9 10 10 10 10 10 11 12 11 12 12 13 13 13 12 11 11 11 10 10 9 7 7 9 9 10 10 11 12 12 12
1 2 3 4 4 5 4 5 5 6 7 8 8 8 9 9 8 8 8 10 10 10 10 11 10 10 10 10 9 10 10 9 8 7 7 8 8 9 9 10 11 11 11
2 2 2 3 4 5 5 4 5 4 5 5 6 8 7 6 6 6 6 7 8 8 9 9 9 9 10 10 9 9 9 8 7 6 6 7 7 8 8 9 9 10 11
3 2 2 2 3 4 4 4 3 4 4 5 6 6 7 5 4 5 5 6 7 8 8 8 8 8 8 8 8 8 7 7 7 7 6 7 7 7 7 8 9 9 10
2 2 2 2 3 4 3 3 3 3 4 5 5 6 7 6 5 5 5 5 6 7 8 8 7 7 6 7 6 7 7 7 7 7 6 6 6 6 6 7 8 8 8
2 2 2 2 3 3 3 3 3 4 4 4 5 6 6 6 6 5 4 4 5 7 8 8 7 7 5 5 5 6 6 6 6 6 6 5 5 5 5 5 5 6 6
2 2 1 2 2 3 3 3 3 4 4 4 4 5 6 6 6 5 5 4 5 7 7 5 4 4 3 3 3 3 4 5 5 5 5 5 5 4 4 4 5 5 5
2 1 2 2 2 2 2 3 3 3 4 4 4 4 5 6 6 5 4 4 6 6 5 4 3 3 3 3 3 2 3 3 3 4 4 4 4 4 4 3 4 4 4
2 2 3 3 3 2 3 3 3 4 4 3 4 3 5 5 6 5 5 5 6 5 3 4 3 3 3 3 3 3 2 2 3 3 2 3 3 3 4 3 3 3 3
3 3 3 3 3 2 2 2 2 2 2 2 3 4 4 5 6 6 4 4 5 4 4 5 4 4 2 3 3 2 2 2 2 2 2 2 2 2 3 2 2 2 1
2 3 3 2 2 2 1 1 1 1 1 2 3 3 4 4 5 5 4 3 4 4 4 5 4 3 1 1 2 2 1 1 1 0 1 1 1 1 1 1 1 2 1
3 2 2 2 2 2 2 3 3 3 2 2 2 2 3 4 4 4 4 3 3 4 4 4 4 4 3 0 1 2 2 2 1 1 0 0 1 1 0 1 1 2 3
3 2 3 3 3 3 2 3 4 2 1 1 1 1 2 3 4 4 4 4 3 3 4 4 3 3 4 3 1 1 1 2 2 0 1 1 1 1 1 2 2 2 3
2 2 2 3 3 3 3 3 3 2 1 1 2 2 2 2 3 4 4 3 2 2 3 3 3 4 3 3 2 1 1 1 1 2 2 1 1 1 1 2 2 3 3
3 3 3 3 3 3 3 3 3 2 2 2 2 2 1 1 2 2 3 3 2 2 2 3 3 4 3 3 2 2 2 2 2 2 2 2 2 2 1 1 2 3 3
Wind_Direction
177 172 163 154 147 137 130 125 122 119 118 117 119 119 118 116 113 111 108 107 105 103 102 101 101 98 96 94 92 90 89 86 84 82 81 80 79 79 78 75 73 71 73
165 168 163 155 151 142 135 130 125 122 120 120 119 118 119 118 117 114 111 109 108 105 104 103 102 100 97 96 95 93 91 89 86 83 81 80 81 81 79 77 76 76 74
143 159 158 154 151 144 138 134 129 126 123 122 121 120 119 121 120 118 115 111 110 107 106 105 104 103 102 100 97 95 93 91 88 84 80 78 82 82 81 79 78 77 75
132 146 151 152 150 144 141 138 134 131 128 125 125 123 121 121 122 121 118 114 111 109 107 106 106 105 105 103 99 96 94 92 89 84 76 75 81 84 83 81 80 78 76
115 128 146 146 149 147 143 141 138 135 131 128 127 125 123 122 121 124 122 118 113 111 110 109 109 109 106 103 100 99 96 93 88 82 77 76 80 84 84 83 82 81 79
106 113 138 141 145 145 145 144 142 139 135 131 128 127 125 124 123 121 122 120 116 115 114 112 112 110 107 104 103 102 98 93 86 81 79 79 83 86 86 85 85 83 81
109 106 124 130 137 143 144 143 142 141 139 135 131 128 127 125 123 121 118 120 121 120 118 116 115 113 109 106 104 104 99 94 89 84 81 83 89 90 88 87 87 84 83
108 100 120 123 126 134 141 144 141 141 139 138 135 131 128 126 125 123 122 119 122 123 121 118 117 115 111 108 106 105 101 96 90 84 82 86 94 95 93 91 89 88 85
83 87 99 117 118 125 132 135 140 139 138 138 136 133 130 126 124 124 123 121 120 120 121 120 118 116 111 109 107 104 100 95 87 82 82 88 96 99 96 94 92 91 87
74 66 71 86 105 112 122 128 131 137 136 136 133 129 127 126 124 123 121 119 120 120 120 121 120 117 112 109 108 103 98 92 84 79 80 94 100 100 97 95 93 93 91
61 54 55 62 73 97 115 121 122 126 130 130 131 127 123 121 118 119 119 119 119 120 119 118 119 118 112 108 107 103 96 91 86 77 78 94 102 101 99 99 96 95 94
50 46 55 54 61 77 104 108 111 117 120 121 122 123 122 121 119 119 120 119 116 117 119 116 115 115 109 103 102 101 95 91 84 77 82 93 102 101 100 101 99 97 96
68 63 47 59 63 66 76 93 97 110 110 109 110 113 120 120 117 116 116 115 112 111 111 110 105 106 108 107 103 100 97 92 85 80 84 93 99 100 104 103 101 100 99
25 57 40 58 66 61 69 87 94 102 108 110 115 114 117 115 111 117 115 115 114 114 111 107 107 106 105 107 107 101 96 94 89 84 86 92 97 99 105 106 105 103 100
19 27 44 59 75 69 75 78 89 99 115 122 123 122 120 120 116 115 114 113 112 118 118 114 113 110 106 104 103 102 96 94 91 84 81 88 91 96 103 108 108 105 102
2 356 26 69 74 79 78 80 94 102 118 124 128 130 126 122 125 123 116 112 112 120 123 122 121 117 110 109 101 99 97 96 94 90 85 85 85 87 93 103 110 109 106
341 355 20 68 71 82 80 81 92 103 109 121 127 129 125 123 127 129 121 115 116 121 119 112 109 106 102 104 97 93 90 92 94 94 93 88 85 82 82 88 103 113 112
355 11 29 59 74 76 73 78 89 101 102 106 125 130 128 126 125 127 124 122 125 123 119 113 107 104 101 102 98 86 88 88 88 95 98 96 94 91 86 79 93 105 110
359 27 44 50 62 71 69 66 75 89 95 100 110 127 132 131 129 127 126 129 132 122 117 120 107 115 120 114 107 87 79 85 82 89 86 90 100 106 103 94 98 101 104
17 50 56 53 44 57 75 72 68 68 67 77 95 109 123 128 126 118 119 126 130 121 115 115 116 104 116 123 106 82 64 75 84 85 92 100 107 113 112 111 104 103 103
31 51 54 50 42 63 92 101 114 90 68 65 68 88 108 121 125 119 117 130 134 137 138 129 119 119 112 113 99 78 44 55 75 71 81 98 107 120 114 118 134 131 119
28 48 49 47 50 47 72 92 126 119 86 63 56 65 85 100 117 123 120 136 136 135 132 130 124 121 121 115 121 117 97 360 352 53 73 134 133 116 126 164 167 177 189
19 30 44 36 41 41 51 83 75 75 72 63 57 50 48 94 104 120 125 130 139 147 157 154 145 135 151 155 116 138 149 205 259 318 296 223 186 139 215 201 200 218 226
0 18 38 37 36 39 60 96 100 101 99 79 106 75 53 85 104 113 120 119 134 142 157 166 153 152 152 164 136 53 123 148 160 225 296 255 204 208 232 238 222 232 237
4 30 44 47 40 36 44 74 91 71 55 60 71 82 76 68 90 106 112 116 120 139 154 158 155 157 163 167 161 148 99 68 114 169 215 267 293 248 231 238 235 235 242
16 26 50 59 46 46 54 63 70 68 56 72 62 72 65 60 59 76 116 122 124 121 140 165 159 163 170 163 158 158 162 165 182 171 200 218 247 267 263 253 244 248 244
Height
1517 1519 1521 1523 1525 1527 1528 1530 1532 1534 1535 1536 1538 1539 1540 1541 1543 1544 1545 1546 1547 1548 1548 1549 1550 1550 1551 1551 1552 1552 1553 1553 1554 1554 1554 1555 1555 1555 1555 1555 1555 1555 1556
1515 1518 1521 1523 1525 1527 1529 1530 1532 1534 1536 1537 1539 1540 1541 1542 1544 1545 1546 1547 1548 1549 1550 1550 1551 1552 1552 1553 1553 1554 1555 1555 1556 1556 1556 1557 1557 1557 1557 1557 1557 1557 1558
1515 1518 1520 1523 1525 1527 1529 1531 1533 1534 1536 1538 1539 1541 1542 1543 1544 1546 1547 1548 1549 1550 1551 1552 1552 1553 1554 1554 1555 1556 1557 1557 1558 1558 1558 1558 1559 1559 1559 1559 1559 1559 1559
1515 1518 1520 1523 1525 1527 1529 1531 1533 1535 1536 1538 1540 1541 1543 1544 1545 1546 1548 1549 1550 1551 1552 1553 1554 1554 1555 1556 1557 1558 1558 1559 1559 1560 1560 1560 1560 1560 1560 1560 1561 1561 1561
1516 1518 1520 1522 1525 1527 1529 1531 1533 1535 1537 1538 1540 1542 1543 1544 1546 1547 1548 1550 1551 1552 1553 1554 1555 1556 1557 1557 1558 1559 1560 1560 1561 1561 1561 1562 1562 1562 1562 1562 1562 1562 1562
1515 1518 1520 1522 1525 1527 1529 1532 1533 1535 1537 1538 1540 1542 1543 1545 1546 1547 1549 1550 1551 1552 1554 1555 1556 1557 1558 1559 1559 1560 1561 1562 1562 1563 1563 1563 1563 1563 1563 1563 1564 1564 1564
1516 1518 1520 1522 1525 1527 1529 1531 1533 1535 1537 1539 1540 1542 1543 1545 1546 1548 1549 1550 1552 1553 1554 1556 1557 1558 1559 1560 1561 1562 1562 1563 1564 1564 1564 1565 1565 1565 1565 1565 1565 1565 1565
1516 1518 1520 1522 1524 1527 1529 1531 1533 1535 1537 1538 1540 1542 1543 1545 1546 1548 1549 1551 1552 1554 1555 1556 1557 1559 1560 1561 1562 1563 1564 1564 1565 1565 1566 1566 1566 1566 1566 1566 1567 1567 1567
1517 1518 1520 1522 1524 1526 1529 1531 1533 1535 1537 1538 1540 1541 1543 1545 1546 1548 1549 1551 1553 1554 1555 1557 1558 1559 1560 1562 1563 1564 1565 1565 1566 1566 1567 1567 1568 1568 1568 1568 1568 1568 1568
1517 1518 1520 1521 1524 1526 1528 1530 1532 1534 1536 1538 1539 1541 1543 1544 1546 1548 1550 1551 1553 1554 1556 1557 1559 1560 1561 1562 1563 1564 1565 1566 1567 1567 1568 1568 1569 1569 1569 1569 1569 1570 1570
1515 1517 1519 1521 1523 1525 1527 1529 1532 1534 1536 1537 1539 1541 1542 1544 1546 1547 1549 1551 1553 1554 1556 1557 1559 1560 1561 1563 1564 1565 1566 1567 1567 1568 1568 1569 1570 1570 1570 1570 1570 1571 1571
1514 1516 1518 1520 1522 1524 1526 1528 1531 1533 1535 1536 1538 1540 1542 1543 1545 1547 1549 1551 1552 1554 1556 1557 1559 1560 1562 1563 1564 1565 1566 1567 1568 1568 1569 1570 1571 1571 1571 1571 1571 1572 1572
1513 1515 1517 1519 1521 1523 1525 1527 1529 1531 1533 1535 1537 1539 1541 1543 1544 1546 1548 1550 1552 1553 1555 1557 1558 1560 1562 1563 1564 1565 1566 1567 1568 1569 1570 1571 1571 1572 1572 1572 1572 1572 1573
1512 1513 1515 1517 1520 1521 1523 1525 1527 1529 1532 1534 1536 1538 1540 1541 1543 1545 1547 1549 1550 1552 1554 1556 1558 1560 1561 1563 1564 1565 1566 1567 1568 1569 1570 1571 1572 1572 1572 1573 1573 1573 1573
1511 1512 1514 1516 1518 1520 1522 1524 1526 1527 1530 1532 1534 1536 1538 1540 1542 1544 1546 1547 1549 1551 1553 1555 1557 1559 1560 1562 1563 1565 1566 1567 1568 1569 1570 1571 1572 1572 1573 1573 1573 1574 1574
1510 1511 1512 1514 1516 1518 1520 1522 1524 1526 1528 1530 1533 1535 1537 1539 1541 1543 1544 1546 1548 1550 1552 1554 1556 1558 1559 1561 1562 1564 1565 1566 1567 1569 1569 1570 1571 1572 1573 1573 1573 1574 1574
1508 1509 1510 1512 1515 1517 1519 1520 1523 1525 1527 1529 1530 1533 1535 1537 1539 1541 1543 1545 1547 1549 1551 1553 1555 1557 1558 1560 1561 1563 1564 1565 1567 1568 1569 1570 1571 1571 1572 1573 1573 1574 1574
1507 1508 1509 1511 1513 1515 1517 1519 1521 1523 1525 1527 1528 1531 1533 1535 1538 1540 1542 1544 1546 1547 1549 1551 1553 1555 1556 1558 1560 1561 1563 1564 1565 1567 1568 1569 1570 1570 1571 1572 1573 1573 1574
1505 1506 1507 1509 1511 1513 1516 1518 1519 1521 1524 1526 1527 1528 1531 1533 1536 1538 1540 1542 1544 1546 1548 1550 1551 1553 1555 1556 1558 1559 1561 1562 1564 1565 1566 1567 1568 1569 1570 1571 1572 1572 1573
1504 1504 1505 1507 1509 1512 1514 1516 1518 1520 1522 1524 1526 1527 1529 1531 1534 1536 1538 1540 1542 1544 1546 1548 1550 1551 1553 1555 1556 1557 1559 1560 1562 1563 1564 1565 1566 1567 1568 1569 1570 1571 1572
1502 1503 1503 1505 1507 1509 1511 1513 1515 1517 1519 1521 1523 1526 1527 1529 1531 1534 1536 1538 1540 1542 1543 1545 1547 1549 1551 1552 1554 1555 1557 1558 1559 1561 1562 1563 1564 1565 1566 1568 1569 1569 1570
1500 1501 1502 1504 1505 1507 1509 1511 1513 1515 1517 1520 1522 1524 1526 1527 1529 1531 1534 1536 1538 1540 1541 1543 1545 1547 1548 1550 1552 1553 1554 1557 1557 1558 1559 1561 1562 1563 1564 1565 1566 1567 1568
1497 1499 1500 1502 1504 1506 1508 1510 1512 1514 1516 1518 1520 1522 1524 1525 1527 1529 1531 1533 1535 1537 1539 1541 1542 1544 1546 1548 1550 1552 1552 1553 1554 1556 1556 1558 1559 1560 1562 1563 1564 1565 1566
1497 1499 1500 1501 1502 1504 1507 1508 1509 1511 1512 1515 1517 1519 1522 1524 1525 1527 1529 1531 1533 1535 1537 1538 1540 1542 1544 1545 1547 1549 1551 1551 1552 1552 1554 1555 1556 1557 1559 1560 1561 1562 1563
1497 1498 1499 1500 1501 1503 1504 1506 1508 1510 1512 1513 1515 1518 1519 1521 1523 1525 1527 1528 1530 1532 1534 1536 1537 1539 1541 1543 1544 1545 1547 1549 1549 1550 1550 1552 1553 1554 1555 1557 1558 1559 1560
1496 1496 1498 1499 1500 1502 1503 1505 1506 1509 1510 1512 1513 1515 1517 1519 1520 1522 1524 1526 1527 1529 1531 1533 1534 1536 1538 1540 1541 1543 1544 1545 1546 1547 1548 1548 1550 1551 1552 1554 1555 1556 1557